Location: Nashville
(36.1660°N, 86.7840°W)
Time: 08:18:37
(UTC-05:00)

EO-88 - Pass Details

Date: 20 May 2022
Orbit: 457 x 464 km, 97.3° (Epoch: 27 June)

Event Time Altitude Azimuth Distance (km) Brightness Sun altitude
Exits shadow 23:23:23 10° 291° (WNW) 1,605 ? -30.5°
Drops below altitude 10° 23:23:25 10° 292° (WNW) 1,613 ? -30.5°
Sets 23:26:34 0° 324° (NW) 2,497 ? -30.8°
